Hourly Weather Bolshie Polyany

Today, 23 June, Wednesday

Time Temperature Precipitation Wind Pressure Humidity
00:00 +24°C° 0 mm 1 mps 753 mmHg 78%
01:00 +23°C° 0 mm 1 mps 753 mmHg 79%
02:00 +23°C° 0 mm 1 mps 753 mmHg 80%
03:00 +20°C° 0 mm 0 mps 753 mmHg 80%
04:00 +21°C° 0 mm 0 mps 753 mmHg 79%
05:00 +22°C° 0 mm 0 mps 754 mmHg 77%
06:00 +23°C° 0 mm 0 mps 754 mmHg 75%
07:00 +25°C° 0 mm 0 mps 754 mmHg 72%
08:00 +28°C° 0 mm 1 mps 754 mmHg 68%
09:00 +29°C° 0 mm 1 mps 754 mmHg 64%
10:00 +30°C° 0 mm 1 mps 754 mmHg 60%
11:00 +31°C° 0 mm 1 mps 754 mmHg 55%
12:00 +30°C° 0 mm 0 mps 754 mmHg 50%
13:00 +32°C° 0 mm 1 mps 753 mmHg 49%
14:00 +32°C° 0 mm 1 mps 753 mmHg 47%
15:00 +33°C° 0 mm 1 mps 753 mmHg 46%
16:00 +32°C° 0 mm 1 mps 753 mmHg 52%
17:00 +31°C° 0 mm 1 mps 753 mmHg 58%
18:00 +31°C° 0 mm 1 mps 753 mmHg 64%
19:00 +29°C° 0 mm 1 mps 753 mmHg 66%
20:00 +28°C° 0 mm 1 mps 753 mmHg 68%
21:00 +26°C° 0 mm 1 mps 753 mmHg 69%
22:00 +26°C° 0 mm 1 mps 753 mmHg 72%
23:00 +25°C° 0 mm 1 mps 753 mmHg 75%

Tomorrow, 24 June, Thursday

Time Temperature Precipitation Wind Pressure Humidity
00:00 +24°C° 0 mm 2 mps 753 mmHg 78%
01:00 +24°C° 0 mm 1 mps 753 mmHg 79%
02:00 +23°C° 0 mm 1 mps 753 mmHg 81%
03:00 +21°C° 0 mm 0 mps 753 mmHg 82%
04:00 +23°C° 0 mm 1 mps 753 mmHg 81%
05:00 +24°C° 0 mm 1 mps 753 mmHg 79%
06:00 +25°C° 0 mm 1 mps 753 mmHg 78%
07:00 +27°C° 0 mm 1 mps 753 mmHg 72%
08:00 +28°C° 0 mm 1 mps 753 mmHg 67%
09:00 +29°C° 0 mm 1 mps 753 mmHg 62%
10:00 +30°C° 0 mm 1 mps 753 mmHg 59%
11:00 +31°C° 0 mm 1 mps 753 mmHg 56%
12:00 +32°C° 0 mm 1 mps 753 mmHg 52%
13:00 +32°C° 0 mm 2 mps 753 mmHg 52%
14:00 +34°C° 0 mm 2 mps 753 mmHg 51%
15:00 +34°C° 0 mm 2 mps 752 mmHg 50%
16:00 +31°C° 1.6 mm 3 mps 752 mmHg 60%
17:00 +28°C° 1.6 mm 4 mps 752 mmHg 71%
18:00 +26°C° 1.6 mm 5 mps 752 mmHg 81%
19:00 +23°C° 0.6 mm 4 mps 752 mmHg 81%
20:00 +22°C° 0.6 mm 3 mps 752 mmHg 81%
21:00 +21°C° 0.6 mm 2 mps 752 mmHg 81%
22:00 +21°C° 0 mm 2 mps 752 mmHg 80%
23:00 +21°C° 0 mm 1 mps 752 mmHg 79%

Day after tomorrow, 25 June, Friday

Time Temperature Precipitation Wind Pressure Humidity
00:00 +21°C° 0 mm 1 mps 751 mmHg 78%
01:00 +21°C° 0.2 mm 1 mps 752 mmHg 80%
02:00 +21°C° 0.2 mm 1 mps 752 mmHg 82%
03:00 +20°C° 0.2 mm 1 mps 752 mmHg 84%
04:00 +21°C° 0 mm 1 mps 752 mmHg 83%
05:00 +22°C° 0 mm 1 mps 752 mmHg 81%
06:00 +23°C° 0 mm 1 mps 751 mmHg 79%
07:00 +25°C° 0 mm 1 mps 751 mmHg 74%
08:00 +26°C° 0 mm 1 mps 751 mmHg 70%
09:00 +28°C° 0 mm 1 mps 751 mmHg 66%
10:00 +29°C° 0 mm 1 mps 751 mmHg 64%
11:00 +30°C° 0 mm 1 mps 751 mmHg 61%
12:00 +32°C° 0 mm 1 mps 751 mmHg 59%
13:00 +32°C° 0 mm 1 mps 751 mmHg 57%
14:00 +32°C° 0 mm 1 mps 751 mmHg 55%
15:00 +33°C° 0 mm 1 mps 750 mmHg 54%
16:00 +32°C° 0 mm 1 mps 750 mmHg 58%
17:00 +32°C° 0 mm 2 mps 749 mmHg 63%
18:00 +31°C° 0 mm 2 mps 749 mmHg 68%
19:00 +30°C° 0.1 mm 2 mps 749 mmHg 72%
20:00 +28°C° 0.1 mm 2 mps 749 mmHg 76%
21:00 +26°C° 0.1 mm 1 mps 749 mmHg 81%
22:00 +25°C° 0.4 mm 1 mps 749 mmHg 83%
23:00 +24°C° 0.4 mm 1 mps 749 mmHg 85%

26 June, Saturday

Time Temperature Precipitation Wind Pressure Humidity
00:00 +23°C° 0.4 mm 1 mps 749 mmHg 88%
01:00 +23°C° 0.1 mm 1 mps 749 mmHg 87%
02:00 +22°C° 0.1 mm 1 mps 749 mmHg 87%
03:00 +20°C° 0.1 mm 0 mps 749 mmHg 86%
04:00 +21°C° 0 mm 0 mps 749 mmHg 85%
05:00 +22°C° 0 mm 0 mps 749 mmHg 83%
06:00 +22°C° 0 mm 0 mps 749 mmHg 82%
07:00 +24°C° 0 mm 0 mps 749 mmHg 77%
08:00 +25°C° 0 mm 0 mps 749 mmHg 73%
09:00 +27°C° 0 mm 0 mps 749 mmHg 69%
10:00 +28°C° 0.5 mm 0 mps 749 mmHg 65%
11:00 +31°C° 0.5 mm 1 mps 749 mmHg 60%
12:00 +32°C° 0.5 mm 1 mps 749 mmHg 56%
13:00 +32°C° 0 mm 1 mps 749 mmHg 55%
14:00 +32°C° 0 mm 1 mps 749 mmHg 54%
15:00 +32°C° 0 mm 1 mps 749 mmHg 54%
16:00 +32°C° 0 mm 1 mps 748 mmHg 59%
17:00 +31°C° 0 mm 1 mps 748 mmHg 63%
18:00 +31°C° 0 mm 1 mps 748 mmHg 68%
19:00 +29°C° 0.1 mm 1 mps 748 mmHg 71%
20:00 +27°C° 0.1 mm 1 mps 748 mmHg 73%
21:00 +24°C° 0.1 mm 0 mps 748 mmHg 76%
22:00 +25°C° 0.1 mm 1 mps 748 mmHg 78%
23:00 +24°C° 0.1 mm 1 mps 748 mmHg 81%

27 June, Sunday

Time Temperature Precipitation Wind Pressure Humidity
00:00 +23°C° 0.1 mm 1 mps 748 mmHg 84%
01:00 +23°C° 0.1 mm 1 mps 748 mmHg 85%
02:00 +23°C° 0.1 mm 1 mps 748 mmHg 86%
03:00 +20°C° 0.1 mm 0 mps 748 mmHg 87%
04:00 +21°C° 0 mm 0 mps 748 mmHg 85%
05:00 +22°C° 0 mm 0 mps 748 mmHg 83%
06:00 +23°C° 0 mm 0 mps 748 mmHg 81%
07:00 +24°C° 0 mm 0 mps 748 mmHg 76%
08:00 +28°C° 0 mm 1 mps 748 mmHg 72%
09:00 +29°C° 0 mm 1 mps 748 mmHg 68%
10:00 +30°C° 0.5 mm 1 mps 748 mmHg 64%
11:00 +31°C° 0.5 mm 1 mps 748 mmHg 61%
12:00 +32°C° 0.5 mm 1 mps 748 mmHg 58%
13:00 +32°C° 0 mm 1 mps 748 mmHg 57%
14:00 +32°C° 0 mm 1 mps 748 mmHg 57%
15:00 +32°C° 0 mm 1 mps 748 mmHg 57%
16:00 +31°C° 0 mm 2 mps 748 mmHg 61%
17:00 +31°C° 0 mm 2 mps 747 mmHg 65%
18:00 +31°C° 0 mm 2 mps 747 mmHg 69%
19:00 +29°C° 0.1 mm 2 mps 747 mmHg 71%
20:00 +27°C° 0.1 mm 1 mps 747 mmHg 74%
21:00 +26°C° 0.1 mm 1 mps 747 mmHg 76%
22:00 +25°C° 0.1 mm 1 mps 747 mmHg 79%
23:00 +24°C° 0.1 mm 1 mps 747 mmHg 83%

28 June, Monday

Time Temperature Precipitation Wind Pressure Humidity
00:00 +24°C° 0.1 mm 1 mps 747 mmHg 86%
01:00 +23°C° 0 mm 1 mps 747 mmHg 87%
02:00 +23°C° 0 mm 1 mps 747 mmHg 87%
03:00 +23°C° 0 mm 1 mps 747 mmHg 88%
04:00 +24°C° 0 mm 1 mps 747 mmHg 86%
05:00 +25°C° 0 mm 1 mps 747 mmHg 85%
06:00 +25°C° 0 mm 1 mps 747 mmHg 83%
07:00 +26°C° 0 mm 1 mps 747 mmHg 78%
08:00 +28°C° 0 mm 1 mps 747 mmHg 74%
09:00 +29°C° 0 mm 1 mps 747 mmHg 70%
10:00 +28°C° 0 mm 0 mps 747 mmHg 66%
11:00 +29°C° 0 mm 0 mps 747 mmHg 62%
12:00 +30°C° 0 mm 0 mps 747 mmHg 58%
13:00 +30°C° 0 mm 0 mps 747 mmHg 57%
14:00 +32°C° 0 mm 1 mps 747 mmHg 55%
15:00 +32°C° 0 mm 1 mps 746 mmHg 54%
16:00 +32°C° 0 mm 1 mps 746 mmHg 58%
17:00 +32°C° 0 mm 1 mps 746 mmHg 62%
18:00 +32°C° 0 mm 1 mps 746 mmHg 67%
19:00 +30°C° 0.1 mm 1 mps 746 mmHg 69%
20:00 +28°C° 0.1 mm 1 mps 746 mmHg 72%
21:00 +27°C° 0.1 mm 1 mps 746 mmHg 74%
22:00 +26°C° 0.2 mm 1 mps 745 mmHg 78%
23:00 +25°C° 0.2 mm 1 mps 745 mmHg 82%
Show more